CW4611 Weather Reports


time (UTC)temp
C
wind
direction
speed
KPH
gust
KPH
rain 1hr
cm
rain 24hr
cm
rain mn
cm
humidity
%
barometer
mb
20260504000603 16 15 1.6 4.8 0.00 0.00 0.00 19 1012.3
20260504000104 16 15 3.2 8.0 0.00 0.00 0.00 20 1012.4
20260503234604 16 13 3.2 14.5 0.00 0.00 0.00 19 1012.4
20260503234103 16 14 3.2 4.8 0.00 0.00 0.00 19 1012.4
20260503233604 16 13 4.8 9.7 0.00 0.00 0.00 18 1012.5
20260503233104 16 15 1.6 14.5 0.00 0.00 0.00 18 1012.5
20260503231604 17 14 6.4 12.9 0.00 0.00 0.00 18 1012.6
20260503231103 17 13 4.8 14.5 0.00 0.00 0.00 17 1012.6
20260503230604 18 14 6.4 14.5 0.00 0.00 0.00 17 1012.7
20260503230104 18 14 6.4 19.3 0.00 0.00 0.00 18 1012.7
20260503224603 17 15 8.0 19.3 0.00 0.00 0.00 18 1012.7
20260503224104 17 14 6.4 19.3 0.00 0.00 0.00 19 1012.8
20260503223604 17 14 4.8 9.7 0.00 0.00 0.00 19 1012.8
20260503223104 16 14 4.8 11.3 0.00 0.00 0.00 19 1012.9
20260503221605 16 14 4.8 14.5 0.00 0.00 0.00 18 1013.0
20260503221104 16 14 8.0 14.5 0.00 0.00 0.00 19 1013.1
20260503220605 16 13 4.8 19.3 0.00 0.00 0.00 19 1013.2
20260503220105 16 12 3.2 19.3 0.00 0.00 0.00 19 1013.3
20260503214605 17 13 4.8 9.7 0.00 0.00 0.00 18 1013.7
20260503214105 17 15 3.2 8.0 0.00 0.00 0.00 16 1013.7
20260503213604 17 10 4.8 11.3 0.00 0.00 0.00 18 1013.7
20260503213105 17 11 4.8 19.3 0.00 0.00 0.00 17 1013.9
20260503211605 17 14 6.4 12.9 0.00 0.00 0.00 17 1014.1
20260503211105 17 14 9.7 19.3 0.00 0.00 0.00 18 1014.1
20260503210604 18 14 8.0 25.7 0.00 0.00 0.00 18 1014.1
20260503210105 18 13 9.7 22.5 0.00 0.00 0.00 18 1014.3
20260503204605 18 13 8.0 20.9 0.00 0.00 0.00 17 1014.6
20260503204105 17 14 8.0 22.5 0.00 0.00 0.00 17 1014.5
20260503203105 17 14 4.8 20.9 0.00 0.00 0.00 17 1014.5
20260503201104 17 14 9.7 19.3 0.00 0.00 0.00 16 1014.8
20260503200605 18 14 11.3 24.1 0.00 0.00 0.00 16 1014.9
20260503200105 18 15 8.0 20.9 0.00 0.00 0.00 18 1014.8
20260503194605 16 13 8.0 25.7 0.00 0.00 0.00 18 1015.0
20260503193604 16 13 6.4 16.1 0.00 0.00 0.00 17 1015.3
20260503193105 16 13 6.4 16.1 0.00 0.00 0.00 18 1015.2
20260503191105 17 14 4.8 11.3 0.00 0.00 0.00 15 1015.7
20260503190605 17 21 9.7 24.1 0.00 0.00 0.00 15 1015.8
20260503190105 18 15 8.0 20.9 0.00 0.00 0.00 16 1015.8
20260503184605 17 13 9.7 19.3 0.00 0.00 0.00 16 1016.0
20260503184105 17 14 4.8 24.1 0.00 0.00 0.00 17 1016.3
20260503183605 17 12 3.2 16.1 0.00 0.00 0.00 17 1016.3
20260503183105 16 16 9.7 19.3 0.00 0.00 0.00 19 1016.5
20260503181605 17 13 3.2 8.0 0.00 0.00 0.00 16 1016.7
20260503181105 17 12 3.2 9.7 0.00 0.00 0.00 16 1016.8
20260503180604 16 14 4.8 16.1 0.00 0.00 0.00 16 1016.8
20260503180105 16 22 6.4 16.1 0.00 0.00 0.00 18 1016.9
20260503174605 16 18 6.4 19.3 0.00 0.00 0.00 16 1017.0
20260503174105 16 14 1.6 9.7 0.00 0.00 0.00 16 1017.0
20260503173605 16 17 4.8 11.3 0.00 0.00 0.00 16 1017.1
20260503173105 17 17 6.4 19.3 0.00 0.00 0.00 16 1017.1
20260503171605 17 20 4.8 16.1 0.00 0.00 0.00 16 1017.1
20260503170605 17 9 4.8 12.9 0.00 0.00 0.00 15 1017.0
20260503170105 17 17 4.8 16.1 0.00 0.00 0.00 15 1017.2
20260503160104 15 12 3.2 8.0 0.00 0.00 0.00 18 1017.6
20260503150605 11 9 6.4 9.7 0.00 0.00 0.00 31 1018.3
20260503150105 12 11 4.8 9.7 0.00 0.00 0.00 29 1018.4
20260503140105 8 10 4.8 16.1 0.00 0.00 0.00 37 1018.7
20260503131105 6 10 9.7 20.9 0.00 0.00 0.00 35 1018.9
20260503130604 5 10 6.4 12.9 0.00 0.00 0.00 36 1019.1
20260503130104 5 9 8.0 24.1 0.00 0.00 0.00 36 1019.1
20260503120105 5 9 6.4 19.3 0.00 0.00 0.00 38 1018.9
20260503110604 6 11 11.3 19.3 0.00 0.00 0.00 34 1019.3
20260503110105 5 11 9.7 19.3 0.00 0.00 0.00 36 1019.3
20260503100105 5 9 9.7 22.5 0.00 0.00 0.00 35 1019.3
20260503090104 4 11 4.8 16.1 0.00 0.00 0.00 41 1019.5
20260503081604 5 9 3.2 11.3 0.00 0.00 0.00 47 1019.9
20260503080605 5 10 11.3 19.3 0.00 0.00 0.00 39 1020.2
20260503080104 6 9 3.2 24.1 0.00 0.00 0.00 40 1020.2
20260503071104 5 10 11.3 22.5 0.00 0.00 0.00 39 1020.4
20260503070604 5 10 9.7 20.9 0.00 0.00 0.00 39 1020.4
20260503070104 5 10 16.1 27.4 0.00 0.00 0.00 40 1020.4
20260503060104 6 10 8.0 20.9 0.00 0.00 0.00 42 1020.2
20260503054604 6 10 11.3 19.3 0.00 0.00 0.00 39 1020.3
20260503054104 6 9 12.9 19.3 0.00 0.00 0.00 39 1020.4
20260503053604 6 10 14.5 19.3 0.00 0.00 0.00 38 1020.5
20260503051604 6 9 14.5 19.3 0.00 0.00 0.00 38 1020.3
20260503051104 6 10 12.9 24.1 0.00 0.00 0.00 38 1020.4
20260503050604 7 10 12.9 19.3 0.00 0.00 0.00 37 1020.4
20260503050104 7 9 8.0 19.3 0.00 0.00 0.00 37 1020.4
20260503044604 7 10 8.0 19.3 0.00 0.00 0.00 36 1020.6
20260503043604 7 10 8.0 11.3 0.00 0.00 0.00 35 1020.5
20260503043104 7 9 6.4 19.3 0.00 0.00 0.00 36 1020.5
20260503041604 7 10 8.0 14.5 0.00 0.00 0.00 38 1020.4
20260503041104 7 9 8.0 11.3 0.00 0.00 0.00 37 1020.4
20260503040603 7 9 6.4 16.1 0.00 0.00 0.00 37 1020.4
20260503034604 8 9 4.8 9.7 0.00 0.00 0.00 36 1020.3
20260503034104 8 9 4.8 9.7 0.00 0.00 0.00 35 1020.2
20260503033604 8 9 4.8 9.7 0.00 0.00 0.00 34 1020.1
20260503033104 8 10 4.8 11.3 0.00 0.00 0.00 34 1020.0
20260503031604 9 9 3.2 4.8 0.00 0.00 0.00 34 1019.9
20260503031104 10 5 1.6 4.8 0.00 0.00 0.00 32 1019.9
20260503030604 10 6 3.2 4.8 0.00 0.00 0.00 33 1019.8
20260503030104 10 15 1.6 4.8 0.00 0.00 0.00 31 1019.7
20260503024604 11 15 1.6 4.8 0.00 0.00 0.00 29 1019.7
20260503024103 11 15 1.6 3.2 0.00 0.00 0.00 27 1019.7
20260503023104 11 15 1.6 9.7 0.00 0.00 0.00 27 1019.5
20260503021104 11 8 4.8 9.7 0.00 0.00 0.00 28 1019.3
20260503020604 11 8 4.8 11.3 0.00 0.00 0.00 26 1019.2
20260503014604 12 10 3.2 4.8 0.00 0.00 0.00 24 1019.1
20260503014104 13 15 3.2 4.8 0.00 0.00 0.00 23 1019.1
20260503013603 13 15 1.6 3.2 0.00 0.00 0.00 23 1019.1
20260503013103 13 15 3.2 11.3 0.00 0.00 0.00 23 1019.1
20260503011603 14 11 4.8 12.9 0.00 0.00 0.00 17 1019.2
20260503011104 15 15 3.2 4.8 0.00 0.00 0.00 15 1019.1
20260503010104 15 14 1.6 9.7 0.00 0.00 0.00 16 1019.2
20260503004603 15 13 4.8 8.0 0.00 0.00 0.00 14 1019.2
20260503004104 15 12 3.2 14.5 0.00 0.00 0.00 15 1019.3
20260503003604 15 13 3.2 14.5 0.00 0.00 0.00 15 1019.3
20260503003104 16 14 6.4 16.1 0.00 0.00 0.00 15 1019.4
20260503001104 15 14 6.4 12.9 0.00 0.00 0.00 14 1019.6